User: anonymous   Login
Location: Unspecified
(0.0000°N, 0.0000°E)
Time: 06:39:39
(UTC+01:00)
Language:

ISS - Orbit

View from above orbital plane
View from above orbital plane
View from above satellite
View from above satellite

Ground track
Ground track

The orbit data is extracted from the following two-line orbital elements,

1 25544U 98067A   14331.62393138  .00017205  00000-0  29226-3 0  4711
2 25544 051.6475 009.2796 0007375 073.1803 068.6923 15.51538622916689
Epoch (UTC): 27 November 2014 14:58:27
Eccentricity: 0.0007375
inclination: 51.6475°
perigee height: 407 km
apogee height: 417 km
right ascension of ascending node: 9.2796°
argument of perigee: 73.1803°
revolutions per day: 15.51538622
mean anomaly at epoch: 68.6923°
orbit number at epoch: 91668

The dashed part of the orbit path shows where the satellite is in the earth's shadow,  

DLR